Starlink 30925

operational
NORAD ID: 58406 Int'l Des: 2023-180 Owner: SPXS Country: US Constellation: starlink
LEOCIRCULAR

关于 Starlink 30925

正在加载描述...

实时位置

正在加载3D地球...

即将过境

高度历史

Altitude vs Time

uPlot chart will show altitude changes over time

两行轨道根数

1 58406U 23180E 25351.13800653 .00001246 00000-0 10727-3 0 9992
2 58406 43.0021 144.8934 0001434 266.9742 93.0937 15.02540869115059
Epoch: Dec 17, 2025 • Age: 17 hours

当前状态

高度 568.2 km
速度 7.58 km/s
星下点 -34.84°S, 22.45°W
发射日期 Nov 22, 2023
运行时间 2 years
类型 internet

技术详情

分类 Payload
质量 730.00 kg
干质量 700.00 kg
总质量 730.00 kg
长度 0.30 m
直径 4.10 m
跨度 29.00 m
形状 Box + pan
制造商 SPXS
平台类型 Starlink V2M
阶段状态 In Orbit
所有者/国家 SPXS/US

大型星座

Loading constellations...